EDT,Max TemperatureF,Mean TemperatureF,Min TemperatureF,Max Dew PointF,MeanDew PointF,Min DewpointF,Max Humidity, Mean Humidity, Min Humidity, Max Sea Level PressureIn, Mean Sea Level PressureIn, Min Sea Level PressureIn, Max VisibilityMiles, Mean VisibilityMiles, Min VisibilityMiles, Max Wind SpeedMPH, Mean Wind SpeedMPH, Max Gust SpeedMPH,PrecipitationIn, CloudCover, Events, WindDirDegrees
2013-10-1,76,67,57,59,56,55,93,72,50,30.10,30.06,30.03,10,9,6,15,5,20,0.00,4,,259
2013-10-2,80,69,57,63,59,55,93,71,49,30.13,30.08,30.06,10,10,7,14,4,20,0.00,3,,255
2013-10-3,79,69,58,66,61,56,93,76,58,30.12,30.09,30.04,10,8,5,21,4,29,0.35,7,Rain-Thunderstorm,215
2013-10-4,81,72,63,69,65,61,97,76,54,30.13,30.08,30.06,10,7,5,24,3,26,0.27,6,Rain,238
2013-10-5,81,73,65,68,66,63,93,76,58,30.12,30.06,30.01,10,8,4,20,2,23,0.10,7,Rain-Thunderstorm,184
2013-10-6,84,75,66,66,62,57,93,69,44,29.98,29.88,29.75,10,9,6,16,7,22,0.00,6,,181
2013-10-7,74,62,50,58,48,42,93,73,53,30.16,29.91,29.73,10,9,3,25,9,33,0.33,7,Rain,249
2013-10-8,67,55,42,47,44,41,92,67,42,30.33,30.28,30.17,10,10,10,14,3,15,0.00,1,,70
2013-10-9,69,57,45,45,42,39,86,60,33,30.37,30.31,30.26,10,10,10,13,4,17,0.00,4,,88
2013-10-10,73,61,48,46,42,39,77,55,33,30.25,30.19,30.12,10,10,10,12,4,14,0.00,6,,63
2013-10-11,66,60,54,56,52,45,80,74,67,30.14,30.10,30.07,10,9,3,12,5,16,0.03,8,Rain,55
2013-10-12,73,65,57,61,55,48,84,74,64,30.17,30.13,30.09,10,10,2,15,5,20,0.03,6,Rain,82
2013-10-13,71,66,60,60,57,54,84,75,66,30.28,30.25,30.18,10,10,10,10,4,14,T,7,,98
2013-10-14,65,60,55,58,56,54,93,83,72,30.34,30.28,30.24,10,8,2,14,4,17,0.04,7,Rain,26
2013-10-15,71,61,51,59,54,48,100,83,66,30.25,30.14,30.00,10,7,0,10,3,13,0.00,7,Fog,157
2013-10-16,65,62,58,61,56,36,93,86,78,29.99,29.92,28.99,10,8,2,16,7,24,0.29,8,Rain,196
2013-10-17,60,55,50,55,50,47,89,83,77,29.94,29.87,29.75,10,8,2,25,6,32,0.44,7,Rain,275
2013-10-18,62,54,45,46,42,37,92,66,39,30.05,29.99,29.90,10,10,7,17,7,24,0.00,3,,236
2013-10-19,55,48,41,46,41,37,86,74,61,29.99,29.89,29.76,10,9,5,23,6,29,0.04,6,Rain,227
2013-10-20,59,50,40,38,36,34,92,66,40,30.07,30.02,29.96,10,10,8,20,8,25,0.00,1,,222
2013-10-21,66,53,40,38,35,29,85,56,26,30.08,30.00,29.87,10,10,10,18,7,25,0.00,3,,191
2013-10-22,59,50,41,47,34,24,89,62,35,30.00,29.92,29.85,10,9,4,24,7,30,0.19,6,Rain,276
2013-10-23,44,41,37,38,35,30,92,75,58,29.97,29.85,29.76,10,9,5,22,6,29,0.06,8,Rain,280
2013-10-24,47,41,34,34,31,25,89,67,45,30.18,30.06,29.96,10,10,8,25,8,31,T,6,Rain,254
2013-10-25,47,40,33,34,30,26,92,71,49,30.37,30.29,30.18,10,9,4,16,7,21,0.02,5,Snow,257
2013-10-26,48,40,32,32,26,21,78,56,34,30.28,30.09,29.94,10,10,10,22,12,30,T,5,Rain,221
2013-10-27,51,42,32,34,31,28,92,67,42,30.14,30.09,30.02,10,10,6,17,5,24,0.00,3,,274
2013-10-28,58,43,28,36,31,27,92,64,36,30.32,30.25,30.15,10,10,10,8,2,12,0.00,4,,343
2013-10-29,59,48,36,39,37,35,100,72,43,30.42,30.35,30.29,10,10,10,7,2,9,0.00,4,,6
2013-10-30,62,53,43,52,44,39,86,67,48,30.26,30.19,30.11,10,10,9,9,2,10,0.00,7,,168
2013-10-31,67,62,56,58,55,53,100,82,63,30.10,29.86,29.47,10,8,4,18,10,28,0.16,8,Rain,183